Location: Appeville
(49.3218°N, 1.3427°W)
Time: 05:49:22
(UTC+00:00)

STARLINK 1037 - Pass Details

Date: 08 December 2019
Orbit: 434 x 436 km, 53.0° (Epoch: 17 January)

Event Time Altitude Azimuth Distance (km) Brightness Sun altitude
Exits shadow 05:33:20 52° 172° (S) 515 3.5 -20.8°
Drops below altitude 10° 05:36:09 10° 130° (SE) 1,472 6.7 -20.3°
Sets 05:38:14 0° 127° (SE) 2,333 8.0 -20.0°
